Home   Weather   Alicante   Past weeks

Flag for Spain Past Weather in Alicante, Spain — Yesterday and Last 2 Weeks

Now
45 °F

Light rain. Partly cloudy.


Feels Like: 41 °F
Forecast: 50 / 55 °F
Wind: 7 mph from Southwest

Location: Alicante / El Altet

Current Time: Jan 20, 2017 at 5:13:38 am

Latest Report: Jan 20, 2017 at 4:30 am


Visibility: N/A

Pressure: 29.95 "Hg

Humidity: 87%

Dew Point: 41 °F

Location of AlicanteLocation

Past Weather in Alicante — Graph

°F

Alicante Temperature Yesterday

Maximum temperature yesterday: 52 °F (at 11:00 pm)
Minimum temperature yesterday: 41 °F (at 8:30 am)
Average temperature yesterday: 46 °F

High & Low Weather Summary for the Past Weeks

 TemperatureHumidityPressure
High66 °F (Jan 12, 3:30 pm)93% (Jan 6, 11:00 pm)30.45 "Hg (Jan 6, 11:00 pm)
Low32 °F (Jan 18, 4:00 am)21% (Jan 14, 3:30 pm)29.83 "Hg (Jan 19, 2:30 pm)
Average51 °F62%30.16 "Hg
* Reported Jan 5 4:00 am — Jan 20 4:00 am, Alicante, Weather by CustomWeather, © 2017

Note: Actual official high and low records may vary slightly from our data, if they occured in-between our weather recording intervals... More about our weather records

Advertising

Alicante Weather History for the Previous 24 Hours

Scroll right to see more
 ConditionsComfort  
Time TempWeatherWind HumidityBarometerVisibility
4:00 am
Fri, Jan 20
52 °FPartly cloudy.6 mph72%29.95 "HgN/A
3:30 am52 °FPartly cloudy.9 mph72%29.95 "HgN/A
3:00 am52 °FPartly cloudy.9 mph72%29.92 "HgN/A
2:30 am52 °FPartly cloudy.8 mph72%29.92 "HgN/A
2:00 am52 °FPartly cloudy.8 mph72%29.92 "HgN/A
1:30 am52 °FPartly cloudy.7 mph72%29.92 "HgN/A
1:00 am52 °FPartly cloudy.10 mph72%29.92 "HgN/A
12:30 am52 °FPartly cloudy.10 mph72%29.92 "HgN/A
12:00 am52 °FPartly cloudy.8 mph72%29.92 "HgN/A
11:30 pm
Thu, Jan 19
52 °FPassing clouds.9 mph72%29.92 "HgN/A
11:00 pm52 °FPassing clouds.9 mph72%29.92 "HgN/A
10:30 pm50 °FPassing clouds.7 mph82%29.92 "HgN/A
10:00 pm50 °FPassing clouds.7 mph82%29.89 "HgN/A
9:30 pm50 °FPassing clouds.10 mph82%29.89 "HgN/A
9:00 pm46 °FPassing clouds.7 mph87%29.89 "HgN/A
8:30 pm45 °FLight rain. Passing clouds.12 mph87%29.86 "HgN/A
8:00 pm45 °FStrong thunderstorms. Passing clouds.9 mph87%29.86 "Hg4 mi
7:30 pm46 °FRain. Passing clouds.12 mph82%29.86 "HgN/A
7:00 pm46 °FPassing clouds.13 mph82%29.86 "HgN/A
6:30 pm46 °FPassing clouds.10 mph82%29.86 "HgN/A
6:00 pm46 °FLight rain. Partly sunny.9 mph87%29.86 "HgN/A
5:30 pm46 °FPartly sunny.9 mph87%29.86 "HgN/A
5:00 pm48 °FLight rain. Partly sunny.14 mph82%29.86 "HgN/A
4:30 pm48 °FLight rain. Partly sunny.5 mph82%29.86 "HgN/A
4:00 pm48 °FLight rain. Partly sunny.6 mph76%29.83 "HgN/A
3:30 pm50 °FPartly sunny.6 mph76%29.83 "HgN/A
3:00 pm50 °FBroken clouds.5 mph67%29.83 "HgN/A
2:30 pm46 °FBroken clouds.15 mph87%29.83 "HgN/A
2:00 pm46 °FLight rain. Broken clouds.14 mph87%29.86 "Hg4 mi
1:30 pm45 °FThunderstorms. Broken clouds.7 mph93%29.86 "Hg4 mi
1:00 pm46 °FRain. Broken clouds.20 mph87%29.86 "Hg4 mi
12:30 pm46 °FRain showers. Broken clouds.21 mph87%29.89 "Hg4 mi
12:00 pm46 °FRain. Broken clouds.20 mph87%29.89 "Hg4 mi
11:30 am45 °FRain. Partly sunny.17 mph87%29.92 "Hg5 mi
11:00 am43 °FLight rain. Partly sunny.21 mph81%29.92 "HgN/A
10:30 am43 °FLight rain. Broken clouds.18 mph87%29.92 "Hg4 mi
10:00 am43 °FRain. Broken clouds.20 mph87%29.95 "Hg4 mi
9:30 am45 °FLight rain. Broken clouds.25 mph81%29.92 "Hg3 mi
9:00 am43 °FRain. Broken clouds.14 mph87%29.95 "Hg3 mi
8:30 am41 °FThunderstorms. Broken clouds.16 mph93%29.95 "Hg3 mi
8:00 am43 °FThunderstorms. Partly cloudy.17 mph87%29.98 "Hg4 mi
7:30 am45 °FThunderstorms. Passing clouds.15 mph81%29.95 "HgN/A
7:00 am45 °FRain. Passing clouds.14 mph76%29.98 "HgN/A
6:30 am46 °FPassing clouds.12 mph71%29.98 "HgN/A
6:00 am45 °FPassing clouds.9 mph76%29.98 "HgN/A
5:30 am45 °FPassing clouds.9 mph76%29.98 "HgN/A
5:00 am46 °FPassing clouds.13 mph71%29.98 "HgN/A
Weather by CustomWeather, © 2017

See weather overviewHow to use our weather pages